World > North America > United States > Iowa

Hourly Castana, IA Regional Weather

Feedback E-mail the Weather

Quick WX

Castana, IA Weather Maps

°F °C°F °C
Castana Weather Map
UTC Time: 7/7/2022, 04:22
Your Time:

Castana, IA Regional Weather

Expires:202207070500;;876822
ASUS43 KDMX 070406
RWRIA 

WEATHER ROUNDUP FOR IOWA
NATIONAL WEATHER SERVICE DES MOINES IA
1100 PM CDT WED JUL 06 2022

NOTE: "FAIR" INDICATES FEW OR NO CLOUDS BELOW 12,000 FEET WITH NO
SIGNIFICANT WEATHER AND/OR OBSTRUCTIONS TO VISIBILITY.

* - THESE STATIONS ARE NOT NWS STATIONS...THUS NOT UNDER NWS
QUALITY CONTROL.  THEY ALSO DO NOT REPORT WEATHER SUCH 
AS PRECIPITATION OR FOG.  


IAZ001>003-012>014-020>022-031>034-043>046-070500-
   NORTHWEST IOWA
  
CITY           SKY/WX    TMP DP  RH WIND       PRES   REMARKS
CARROLL *      MOCLDY    72  72 100 E5        29.99F                  
CHEROKEE *     PTCLDY    72  71  96 CALM      30.00F                  
DENISON *      MOCLDY    73  73 100 E6        30.00F                  
LE MARS *      MOCLDY   N/A N/A N/A E8        29.98S                  
MAURICE *      FAIR      73  72  94 SE9       29.98                   
SHELDON *      MOCLDY    73  73 100 SE7       29.99S                  
SIOUX CITY     MOCLDY    76  71  85 SE5       29.97S                  
SPENCER        PTCLDY    73  69  87 CALM      30.01R                  
STORM LAKE *   PTCLDY    70  70 100 SE5       30.01S                  
$$
 

SKY/WX - Weather  TMP - Temperature  DP - Dew Point  RH - Humidity
WIND - Wind Direction/Speed PRES - Barometric Pressure VSB - Visibility
WCI - Wind Chill Index E13G22 Wind - East Wind 13 mph/Gusts of 22 mph

Trending Headlines

Castana Radar Loop



Castana Quick Facts


National Two Day Weather Forecast


E-mail the Castana Weather Forecast

Voice your opinion or tell us about page issues...